Time,TemperatureF,DewpointF,PressureIn,WindDirection,WindDirectionDegrees,WindSpeedMPH,WindSpeedGustMPH,Humidity,HourlyPrecipIn,Conditions,Clouds,dailyrainin,SoftwareType,DateUTC
2013-02-22 00:01:00,32.9,30.4,29.81,SE,135,6.0,6.0,90,0.00,,,0.00,meteohub,2013-02-22 06:01:00,
2013-02-22 00:06:00,32.7,30.2,29.82,SE,135,5.0,6.0,90,0.00,,,0.00,meteohub,2013-02-22 06:06:00,
2013-02-22 00:11:00,32.7,30.4,29.82,SE,135,3.0,6.0,91,0.00,,,0.00,meteohub,2013-02-22 06:11:00,
2013-02-22 00:16:00,32.9,30.6,29.82,SE,135,5.0,6.0,91,0.00,,,0.00,meteohub,2013-02-22 06:16:00,
2013-02-22 00:21:00,32.9,30.6,29.82,SE,135,8.0,8.0,91,0.00,,,0.00,meteohub,2013-02-22 06:21:00,
2013-02-22 00:26:00,33.1,30.7,29.83,SE,135,5.0,8.0,91,0.00,,,0.00,meteohub,2013-02-22 06:26:00,
2013-02-22 00:31:00,33.3,30.9,29.83,SE,135,8.0,8.0,91,0.00,,,0.00,meteohub,2013-02-22 06:31:00,
2013-02-22 00:36:00,33.3,30.9,29.83,SE,135,9.0,9.0,91,0.00,,,0.00,meteohub,2013-02-22 06:36:00,
2013-02-22 00:41:00,33.3,30.9,29.83,SE,135,5.0,9.0,91,0.00,,,0.00,meteohub,2013-02-22 06:41:00,
2013-02-22 00:46:00,33.3,30.9,29.82,SE,135,7.0,9.0,91,0.00,,,0.00,meteohub,2013-02-22 06:46:00,
2013-02-22 00:51:00,33.4,31.1,29.82,SE,135,10.0,10.0,91,0.00,,,0.00,meteohub,2013-02-22 06:51:00,
2013-02-22 00:56:00,33.4,31.1,29.82,SE,135,11.0,11.0,91,0.00,,,0.00,meteohub,2013-02-22 06:56:00,
2013-02-22 01:01:00,33.4,31.1,29.82,SE,135,10.0,11.0,91,0.00,,,0.00,meteohub,2013-02-22 07:01:00,
2013-02-22 01:06:00,33.4,31.1,29.83,SE,135,6.0,11.0,91,0.00,,,0.00,meteohub,2013-02-22 07:06:00,
2013-02-22 01:11:00,33.4,30.7,29.83,SE,135,9.0,11.0,90,0.00,,,0.00,meteohub,2013-02-22 07:11:00,
2013-02-22 01:16:00,33.4,30.7,29.83,SE,135,14.0,14.0,90,0.00,,,0.00,meteohub,2013-02-22 07:16:00,
2013-02-22 01:21:00,33.6,30.9,29.83,SE,135,6.0,17.0,90,0.00,,,0.00,meteohub,2013-02-22 07:21:00,
2013-02-22 01:26:00,33.6,30.9,29.82,SE,135,9.0,17.0,90,0.00,,,0.00,meteohub,2013-02-22 07:26:00,
2013-02-22 01:31:00,33.6,30.7,29.82,SE,135,16.0,16.0,89,0.00,,,0.00,meteohub,2013-02-22 07:31:00,
2013-02-22 01:36:00,33.8,30.9,29.81,SE,135,10.0,16.0,89,0.00,,,0.00,meteohub,2013-02-22 07:36:00,
2013-02-22 01:41:00,34.0,31.1,29.81,SE,135,11.0,16.0,89,0.00,,,0.00,meteohub,2013-02-22 07:41:00,
2013-02-22 01:46:00,34.0,30.7,29.81,SE,135,10.0,16.0,88,0.00,,,0.00,meteohub,2013-02-22 07:46:00,
2013-02-22 01:51:00,34.0,30.7,29.81,SE,135,7.0,11.0,88,0.00,,,0.00,meteohub,2013-02-22 07:51:00,
2013-02-22 01:56:00,33.8,30.6,29.81,SE,135,10.0,12.0,88,0.00,,,0.00,meteohub,2013-02-22 07:56:00,
2013-02-22 02:01:00,34.0,30.7,29.81,SE,135,10.0,12.0,88,0.00,,,0.00,meteohub,2013-02-22 08:01:00,
2013-02-22 02:06:00,34.0,30.7,29.83,SE,135,6.0,11.0,88,0.00,,,0.00,meteohub,2013-02-22 08:06:00,
2013-02-22 02:11:00,33.8,30.6,29.83,SE,135,6.0,11.0,88,0.00,,,0.00,meteohub,2013-02-22 08:11:00,
2013-02-22 02:16:00,33.6,30.4,29.83,SE,135,15.0,15.0,88,0.00,,,0.00,meteohub,2013-02-22 08:16:00,
2013-02-22 02:21:00,33.6,30.2,29.83,SE,135,11.0,15.0,87,0.00,,,0.00,meteohub,2013-02-22 08:21:00,
2013-02-22 02:26:00,33.4,29.7,29.84,SE,135,12.0,20.0,86,0.00,,,0.00,meteohub,2013-02-22 08:26:00,
2013-02-22 02:31:00,33.3,29.3,29.84,SE,135,11.0,20.0,85,0.00,,,0.00,meteohub,2013-02-22 08:31:00,
2013-02-22 02:36:00,33.1,29.1,29.84,SE,135,13.0,26.0,85,0.00,,,0.00,meteohub,2013-02-22 08:36:00,
2013-02-22 02:41:00,32.9,28.9,29.84,SE,135,9.0,26.0,85,0.00,,,0.00,meteohub,2013-02-22 08:41:00,
2013-02-22 02:46:00,32.5,28.8,29.84,SE,135,15.0,26.0,86,0.00,,,0.00,meteohub,2013-02-22 08:46:00,
2013-02-22 02:51:00,32.5,28.8,29.84,SE,135,18.0,18.0,86,0.00,,,0.00,meteohub,2013-02-22 08:51:00,
2013-02-22 02:56:00,31.8,28.0,29.85,SE,135,20.0,20.0,86,0.00,,,0.00,meteohub,2013-02-22 08:56:00,
2013-02-22 03:01:00,31.3,27.5,29.85,SE,135,13.0,20.0,86,0.00,,,0.00,meteohub,2013-02-22 09:01:00,
2013-02-22 03:06:00,30.7,27.1,29.85,SE,135,15.0,20.0,86,0.00,,,0.00,meteohub,2013-02-22 09:06:00,
2013-02-22 03:11:00,30.0,26.1,29.86,SE,135,12.0,20.0,85,0.00,,,0.00,meteohub,2013-02-22 09:11:00,
2013-02-22 03:16:00,29.7,25.7,29.86,SE,135,10.0,19.0,85,0.00,,,0.00,meteohub,2013-02-22 09:16:00,
2013-02-22 03:21:00,29.1,25.0,29.86,SE,135,9.0,19.0,84,0.00,,,0.00,meteohub,2013-02-22 09:21:00,
2013-02-22 03:26:00,28.9,24.8,29.87,SE,135,9.0,19.0,84,0.00,,,0.00,meteohub,2013-02-22 09:26:00,
2013-02-22 03:31:00,28.2,24.1,29.87,SE,135,6.0,15.0,84,0.00,,,0.00,meteohub,2013-02-22 09:31:00,
2013-02-22 03:36:00,28.2,24.1,29.87,SE,135,12.0,14.0,84,0.00,,,0.00,meteohub,2013-02-22 09:36:00,
2013-02-22 03:41:00,27.5,23.4,29.88,SE,135,11.0,12.0,84,0.00,,,0.00,meteohub,2013-02-22 09:41:00,
2013-02-22 03:46:00,27.5,23.4,29.86,SE,135,8.0,12.0,84,0.00,,,0.00,meteohub,2013-02-22 09:46:00,
2013-02-22 03:51:00,27.1,23.0,29.87,SE,135,9.0,12.0,84,0.00,,,0.00,meteohub,2013-02-22 09:51:00,
2013-02-22 03:56:00,26.8,22.6,29.87,SE,135,12.0,12.0,84,0.00,,,0.00,meteohub,2013-02-22 09:56:00,
2013-02-22 04:01:00,26.8,22.8,29.87,SE,135,8.0,12.0,85,0.00,,,0.00,meteohub,2013-02-22 10:01:00,
2013-02-22 04:06:00,26.8,22.6,29.86,SE,135,9.0,12.0,84,0.00,,,0.00,meteohub,2013-02-22 10:06:00,
2013-02-22 04:11:00,26.2,22.1,29.87,SE,135,14.0,14.0,84,0.00,,,0.00,meteohub,2013-02-22 10:11:00,
2013-02-22 04:16:00,26.1,21.9,29.87,SE,135,10.0,14.0,84,0.00,,,0.00,meteohub,2013-02-22 10:16:00,
2013-02-22 04:21:00,25.7,21.6,29.87,SE,135,9.0,14.0,84,0.00,,,0.00,meteohub,2013-02-22 10:21:00,
2013-02-22 04:26:00,25.5,21.4,29.88,SE,135,8.0,14.0,84,0.00,,,0.00,meteohub,2013-02-22 10:26:00,
2013-02-22 04:31:00,25.3,21.2,29.88,SE,135,11.0,12.0,84,0.00,,,0.00,meteohub,2013-02-22 10:31:00,
2013-02-22 04:36:00,25.3,21.2,29.88,SE,135,10.0,12.0,84,0.00,,,0.00,meteohub,2013-02-22 10:36:00,
2013-02-22 04:41:00,25.3,21.4,29.88,SE,135,9.0,11.0,85,0.00,,,0.00,meteohub,2013-02-22 10:41:00,
2013-02-22 04:46:00,25.3,21.4,29.88,SE,135,7.0,11.0,85,0.00,,,0.00,meteohub,2013-02-22 10:46:00,
2013-02-22 04:51:00,25.0,21.2,29.88,SE,135,5.0,10.0,85,0.00,,,0.00,meteohub,2013-02-22 10:51:00,
2013-02-22 04:56:00,25.3,21.4,29.88,SE,135,8.0,9.0,85,0.00,,,0.00,meteohub,2013-02-22 10:56:00,
2013-02-22 05:02:00,25.0,21.2,29.88,SE,135,7.0,10.0,85,0.00,,,0.00,meteohub,2013-02-22 11:02:00,
2013-02-22 05:07:00,25.0,21.2,29.91,SE,135,5.0,12.0,85,0.00,,,0.00,meteohub,2013-02-22 11:07:00,
2013-02-22 05:12:00,24.8,21.0,29.91,SE,135,5.0,12.0,85,0.00,,,0.00,meteohub,2013-02-22 11:12:00,
2013-02-22 05:17:00,24.6,20.8,29.91,SE,135,9.0,12.0,85,0.00,,,0.00,meteohub,2013-02-22 11:17:00,
2013-02-22 05:22:00,24.6,20.8,29.91,SE,135,9.0,14.0,85,0.00,,,0.00,meteohub,2013-02-22 11:22:00,
2013-02-22 05:26:00,24.6,20.8,29.92,SE,135,11.0,14.0,85,0.00,,,0.00,meteohub,2013-02-22 11:26:00,
2013-02-22 05:32:00,24.3,20.5,29.92,SE,135,9.0,12.0,85,0.00,,,0.00,meteohub,2013-02-22 11:32:00,
2013-02-22 05:37:00,24.3,20.5,29.92,SE,135,14.0,14.0,85,0.00,,,0.00,meteohub,2013-02-22 11:37:00,
2013-02-22 05:42:00,23.9,20.1,29.92,SE,135,10.0,14.0,85,0.00,,,0.00,meteohub,2013-02-22 11:42:00,
2013-02-22 05:47:00,23.9,19.8,29.94,SE,135,6.0,14.0,84,0.00,,,0.00,meteohub,2013-02-22 11:47:00,
2013-02-22 05:52:00,23.9,20.1,29.94,SE,135,6.0,14.0,85,0.00,,,0.00,meteohub,2013-02-22 11:52:00,
2013-02-22 05:57:00,23.5,19.8,29.94,SE,135,10.0,11.0,85,0.00,,,0.00,meteohub,2013-02-22 11:57:00,
2013-02-22 06:02:00,23.5,19.8,29.94,SE,135,8.0,11.0,85,0.00,,,0.00,meteohub,2013-02-22 12:02:00,
2013-02-22 06:07:00,23.5,19.8,29.94,SE,135,10.0,11.0,85,0.00,,,0.00,meteohub,2013-02-22 12:07:00,
2013-02-22 06:12:00,23.5,19.8,29.94,SE,135,6.0,11.0,85,0.00,,,0.00,meteohub,2013-02-22 12:12:00,
2013-02-22 06:17:00,23.5,19.8,29.94,SE,135,7.0,11.0,85,0.00,,,0.00,meteohub,2013-02-22 12:17:00,
2013-02-22 06:22:00,23.5,19.8,29.94,SE,135,9.0,12.0,85,0.00,,,0.00,meteohub,2013-02-22 12:22:00,
2013-02-22 06:27:00,23.5,19.8,29.96,SE,135,8.0,12.0,85,0.00,,,0.00,meteohub,2013-02-22 12:27:00,
2013-02-22 06:32:00,23.9,20.1,29.96,SE,135,8.0,12.0,85,0.00,,,0.00,meteohub,2013-02-22 12:32:00,
2013-02-22 06:37:00,23.5,19.8,29.96,SE,135,13.0,13.0,85,0.00,,,0.00,meteohub,2013-02-22 12:37:00,
2013-02-22 06:42:00,23.5,19.8,29.96,SE,135,12.0,13.0,85,0.00,,,0.00,meteohub,2013-02-22 12:42:00,
2013-02-22 06:47:00,23.5,19.9,29.98,SE,135,10.0,13.0,86,0.00,,,0.00,meteohub,2013-02-22 12:47:00,
2013-02-22 06:52:00,23.4,19.8,29.98,SE,135,12.0,13.0,86,0.00,,,0.00,meteohub,2013-02-22 12:52:00,
2013-02-22 06:57:00,23.2,19.6,29.98,SE,135,9.0,12.0,86,0.00,,,0.00,meteohub,2013-02-22 12:57:00,
2013-02-22 07:02:00,23.2,19.6,29.98,SE,135,6.0,12.0,86,0.00,,,0.00,meteohub,2013-02-22 13:02:00,
2013-02-22 07:07:00,23.2,19.6,29.99,SE,135,7.0,14.0,86,0.00,,,0.00,meteohub,2013-02-22 13:07:00,
2013-02-22 07:12:00,23.2,19.6,29.99,SE,135,7.0,14.0,86,0.00,,,0.00,meteohub,2013-02-22 13:12:00,
2013-02-22 07:17:00,23.2,19.6,29.99,SE,135,12.0,14.0,86,0.00,,,0.00,meteohub,2013-02-22 13:17:00,
2013-02-22 07:22:00,23.2,19.4,29.99,SE,135,9.0,12.0,85,0.00,,,0.00,meteohub,2013-02-22 13:22:00,
2013-02-22 07:27:00,23.2,19.4,29.99,SE,135,11.0,12.0,85,0.00,,,0.00,meteohub,2013-02-22 13:27:00,
2013-02-22 07:32:00,23.2,19.4,29.99,SE,135,9.0,12.0,85,0.00,,,0.00,meteohub,2013-02-22 13:32:00,
2013-02-22 07:37:00,23.2,19.4,29.99,SE,135,6.0,11.0,85,0.00,,,0.00,meteohub,2013-02-22 13:37:00,
2013-02-22 07:42:00,23.2,19.4,29.99,SE,135,9.0,11.0,85,0.00,,,0.00,meteohub,2013-02-22 13:42:00,
2013-02-22 07:47:00,23.2,19.4,30.01,SE,135,8.0,11.0,85,0.00,,,0.00,meteohub,2013-02-22 13:47:00,
2013-02-22 07:52:00,23.2,19.4,30.01,SE,135,4.0,11.0,85,0.00,,,0.00,meteohub,2013-02-22 13:52:00,
2013-02-22 07:57:00,23.2,19.4,30.01,SE,135,9.0,11.0,85,0.00,,,0.00,meteohub,2013-02-22 13:57:00,
2013-02-22 08:02:00,23.2,19.4,30.01,SE,135,7.0,9.0,85,0.00,,,0.00,meteohub,2013-02-22 14:02:00,
2013-02-22 08:07:00,23.5,19.8,30.02,SE,135,13.0,13.0,85,0.00,,,0.00,meteohub,2013-02-22 14:07:00,
2013-02-22 08:12:00,23.4,19.6,30.02,SE,135,5.0,13.0,85,0.00,,,0.00,meteohub,2013-02-22 14:12:00,
2013-02-22 08:17:00,23.5,19.8,30.02,SE,135,7.0,13.0,85,0.00,,,0.00,meteohub,2013-02-22 14:17:00,
2013-02-22 08:22:00,23.5,19.8,30.02,SE,135,7.0,13.0,85,0.00,,,0.00,meteohub,2013-02-22 14:22:00,
2013-02-22 08:27:00,23.9,20.1,30.03,SE,135,5.0,10.0,85,0.00,,,0.00,meteohub,2013-02-22 14:27:00,
2013-02-22 08:32:00,23.9,20.1,30.03,SE,135,9.0,10.0,85,0.00,,,0.00,meteohub,2013-02-22 14:32:00,
2013-02-22 08:37:00,23.9,20.1,30.03,SE,135,12.0,12.0,85,0.00,,,0.00,meteohub,2013-02-22 14:37:00,
2013-02-22 08:42:00,23.9,20.1,30.03,SE,135,8.0,10.0,85,0.00,,,0.00,meteohub,2013-02-22 14:42:00,
2013-02-22 08:47:00,23.9,19.8,30.04,SE,135,11.0,13.0,84,0.00,,,0.00,meteohub,2013-02-22 14:47:00,
2013-02-22 08:52:00,23.9,19.8,30.04,SE,135,9.0,13.0,84,0.00,,,0.00,meteohub,2013-02-22 14:52:00,
2013-02-22 08:57:00,23.9,19.8,30.04,SE,135,8.0,13.0,84,0.00,,,0.00,meteohub,2013-02-22 14:57:00,
2013-02-22 09:02:00,23.9,19.8,30.04,SE,135,10.0,12.0,84,0.00,,,0.00,meteohub,2013-02-22 15:02:00,
2013-02-22 09:07:00,23.9,19.8,30.04,SE,135,8.0,12.0,84,0.00,,,0.00,meteohub,2013-02-22 15:07:00,
2013-02-22 09:12:00,23.9,19.8,30.04,SE,135,11.0,12.0,84,0.00,,,0.00,meteohub,2013-02-22 15:12:00,
2013-02-22 09:18:00,24.1,19.9,30.04,SE,135,7.0,11.0,84,0.00,,,0.00,meteohub,2013-02-22 15:18:00,
2013-02-22 09:23:00,24.3,20.1,30.04,SE,135,11.0,11.0,84,0.00,,,0.00,meteohub,2013-02-22 15:23:00,
2013-02-22 09:28:00,24.6,20.5,30.07,SE,135,5.0,11.0,84,0.00,,,0.00,meteohub,2013-02-22 15:28:00,
2013-02-22 09:33:00,24.6,20.5,30.07,SE,135,9.0,11.0,84,0.00,,,0.00,meteohub,2013-02-22 15:33:00,
2013-02-22 09:38:00,24.6,20.5,30.07,SE,135,11.0,11.0,84,0.00,,,0.00,meteohub,2013-02-22 15:38:00,
2013-02-22 09:43:00,24.6,20.1,30.07,SE,135,8.0,11.0,83,0.00,,,0.00,meteohub,2013-02-22 15:43:00,
2013-02-22 09:48:00,24.6,20.1,30.08,SE,135,8.0,11.0,83,0.00,,,0.00,meteohub,2013-02-22 15:48:00,
2013-02-22 09:53:00,24.6,20.1,30.08,SE,135,9.0,11.0,83,0.00,,,0.00,meteohub,2013-02-22 15:53:00,
2013-02-22 09:58:00,24.6,20.1,30.08,SE,135,11.0,11.0,83,0.00,,,0.00,meteohub,2013-02-22 15:58:00,
2013-02-22 10:03:00,25.0,20.8,30.08,SE,135,8.0,11.0,84,0.00,,,0.00,meteohub,2013-02-22 16:03:00,
2013-02-22 10:08:00,24.8,20.7,30.09,SE,135,5.0,11.0,84,0.00,,,0.00,meteohub,2013-02-22 16:08:00,
2013-02-22 10:13:00,25.0,20.5,30.09,SE,135,9.0,11.0,83,0.00,,,0.00,meteohub,2013-02-22 16:13:00,
2013-02-22 10:18:00,25.3,20.8,30.08,SE,135,8.0,9.0,83,0.00,,,0.00,meteohub,2013-02-22 16:18:00,
2013-02-22 10:23:00,25.3,20.8,30.08,SE,135,12.0,13.0,83,0.00,,,0.00,meteohub,2013-02-22 16:23:00,
2013-02-22 10:28:00,25.7,21.2,30.12,SE,135,8.0,13.0,83,0.00,,,0.00,meteohub,2013-02-22 16:28:00,
2013-02-22 10:33:00,26.1,21.6,30.12,SE,135,7.0,13.0,83,0.00,,,0.00,meteohub,2013-02-22 16:33:00,
2013-02-22 10:38:00,26.4,21.9,30.12,SE,135,5.0,12.0,83,0.00,,,0.00,meteohub,2013-02-22 16:38:00,
2013-02-22 10:43:00,26.8,22.3,30.11,SE,135,10.0,13.0,83,0.00,,,0.00,meteohub,2013-02-22 16:43:00,
2013-02-22 10:48:00,26.8,22.1,30.12,SE,135,9.0,13.0,82,0.00,,,0.00,meteohub,2013-02-22 16:48:00,
2013-02-22 10:53:00,26.2,21.6,30.12,SE,135,9.0,13.0,82,0.00,,,0.00,meteohub,2013-02-22 16:53:00,
2013-02-22 10:58:00,26.2,21.6,30.12,SE,135,10.0,11.0,82,0.00,,,0.00,meteohub,2013-02-22 16:58:00,
2013-02-22 11:03:00,26.4,21.7,30.12,SE,135,7.0,11.0,82,0.00,,,0.00,meteohub,2013-02-22 17:03:00,
2013-02-22 11:08:00,26.8,22.1,30.14,SE,135,9.0,11.0,82,0.00,,,0.00,meteohub,2013-02-22 17:08:00,
2013-02-22 11:13:00,26.8,22.1,30.14,SE,135,10.0,10.0,82,0.00,,,0.00,meteohub,2013-02-22 17:13:00,
2013-02-22 11:18:00,26.8,22.1,30.14,SE,135,6.0,10.0,82,0.00,,,0.00,meteohub,2013-02-22 17:18:00,
2013-02-22 11:23:00,26.6,21.6,30.14,SE,135,10.0,11.0,81,0.00,,,0.00,meteohub,2013-02-22 17:23:00,
2013-02-22 11:28:00,26.8,22.1,30.14,SE,135,13.0,13.0,82,0.00,,,0.00,meteohub,2013-02-22 17:28:00,
2013-02-22 11:33:00,26.8,22.1,30.14,SE,135,14.0,15.0,82,0.00,,,0.00,meteohub,2013-02-22 17:33:00,
2013-02-22 11:37:00,27.1,22.1,30.13,SE,135,7.0,15.0,81,0.00,,,0.00,meteohub,2013-02-22 17:37:00,
2013-02-22 11:42:00,27.5,22.5,30.13,SE,135,9.0,15.0,81,0.00,,,0.00,meteohub,2013-02-22 17:42:00,
2013-02-22 11:47:00,27.7,22.3,30.13,SE,135,8.0,14.0,80,0.00,,,0.00,meteohub,2013-02-22 17:47:00,
2013-02-22 11:52:00,27.9,22.5,30.12,SE,135,9.0,12.0,80,0.00,,,0.00,meteohub,2013-02-22 17:52:00,
2013-02-22 11:58:00,28.2,22.8,30.12,SE,135,11.0,12.0,80,0.00,,,0.00,meteohub,2013-02-22 17:58:00,
2013-02-22 12:03:00,28.2,22.8,30.12,SE,135,9.0,12.0,80,0.00,,,0.00,meteohub,2013-02-22 18:03:00,
2013-02-22 12:08:00,28.6,23.2,30.13,SE,135,9.0,11.0,80,0.00,,,0.00,meteohub,2013-02-22 18:08:00,
2013-02-22 12:13:00,28.4,23.0,30.13,SE,135,8.0,11.0,80,0.00,,,0.00,meteohub,2013-02-22 18:13:00,
2013-02-22 12:17:00,28.4,23.0,30.13,SE,135,7.0,11.0,80,0.00,,,0.00,meteohub,2013-02-22 18:17:00,
2013-02-22 12:23:00,28.6,23.2,30.13,SE,135,9.0,11.0,80,0.00,,,0.00,meteohub,2013-02-22 18:23:00,
2013-02-22 12:28:00,28.6,22.8,30.13,SE,135,6.0,12.0,79,0.00,,,0.00,meteohub,2013-02-22 18:28:00,
2013-02-22 12:33:00,28.6,22.8,30.13,SE,135,7.0,12.0,79,0.00,,,0.00,meteohub,2013-02-22 18:33:00,
2013-02-22 12:38:00,28.6,22.8,30.13,SE,135,8.0,12.0,79,0.00,,,0.00,meteohub,2013-02-22 18:38:00,
2013-02-22 12:43:00,28.6,22.8,30.13,SE,135,8.0,11.0,79,0.00,,,0.00,meteohub,2013-02-22 18:43:00,
2013-02-22 12:48:00,28.2,22.6,30.12,SE,135,8.0,11.0,79,0.00,,,0.00,meteohub,2013-02-22 18:48:00,
2013-02-22 12:53:00,28.6,22.8,30.12,SE,135,10.0,10.0,79,0.00,,,0.00,meteohub,2013-02-22 18:53:00,
2013-02-22 12:58:00,28.6,22.8,30.12,SE,135,11.0,11.0,79,0.00,,,0.00,meteohub,2013-02-22 18:58:00,
2013-02-22 13:03:00,28.6,22.8,30.12,SE,135,10.0,11.0,79,0.00,,,0.00,meteohub,2013-02-22 19:03:00,
2013-02-22 13:08:00,28.9,23.2,30.12,SE,135,11.0,11.0,79,0.00,,,0.00,meteohub,2013-02-22 19:08:00,
2013-02-22 13:13:00,28.8,23.0,30.12,SE,135,12.0,12.0,79,0.00,,,0.00,meteohub,2013-02-22 19:13:00,
2013-02-22 13:18:00,28.9,23.2,30.12,SE,135,9.0,11.0,79,0.00,,,0.00,meteohub,2013-02-22 19:18:00,
2013-02-22 13:23:00,29.1,23.4,30.12,SE,135,11.0,12.0,79,0.03,,,0.03,meteohub,2013-02-22 19:23:00,
2013-02-22 13:28:00,28.9,23.0,30.11,SE,135,9.0,12.0,78,0.03,,,0.03,meteohub,2013-02-22 19:28:00,
2013-02-22 13:33:00,29.3,23.4,30.11,SE,135,6.0,11.0,78,0.03,,,0.03,meteohub,2013-02-22 19:33:00,
2013-02-22 13:38:00,29.3,23.4,30.11,SE,135,9.0,11.0,78,0.03,,,0.03,meteohub,2013-02-22 19:38:00,
2013-02-22 13:43:00,29.7,23.7,30.11,SE,135,9.0,10.0,78,0.03,,,0.03,meteohub,2013-02-22 19:43:00,
2013-02-22 13:48:00,29.8,23.9,30.11,SE,135,9.0,10.0,78,0.03,,,0.03,meteohub,2013-02-22 19:48:00,
2013-02-22 13:53:00,30.0,24.1,30.11,SE,135,7.0,12.0,78,0.03,,,0.03,meteohub,2013-02-22 19:53:00,
2013-02-22 13:58:00,30.4,24.3,30.11,SE,135,13.0,13.0,78,0.03,,,0.03,meteohub,2013-02-22 19:58:00,
2013-02-22 14:03:00,30.4,24.3,30.11,SE,135,10.0,13.0,78,0.03,,,0.03,meteohub,2013-02-22 20:03:00,
2013-02-22 14:08:00,30.2,24.3,30.10,SE,135,7.0,13.0,78,0.03,,,0.03,meteohub,2013-02-22 20:08:00,
2013-02-22 14:13:00,30.7,24.6,30.10,SE,135,8.0,13.0,78,0.03,,,0.03,meteohub,2013-02-22 20:13:00,
2013-02-22 14:18:00,31.1,24.8,30.10,SE,135,7.0,10.0,77,0.00,,,0.03,meteohub,2013-02-22 20:18:00,
2013-02-22 14:23:00,31.1,24.8,30.10,SE,135,6.0,10.0,77,0.00,,,0.03,meteohub,2013-02-22 20:23:00,
2013-02-22 14:28:00,31.1,24.4,30.10,SE,135,5.0,11.0,76,0.00,,,0.03,meteohub,2013-02-22 20:28:00,
2013-02-22 14:33:00,31.1,24.4,30.10,SE,135,9.0,11.0,76,0.00,,,0.03,meteohub,2013-02-22 20:33:00,
2013-02-22 14:38:00,31.5,24.8,30.10,SE,135,11.0,11.0,76,0.00,,,0.03,meteohub,2013-02-22 20:38:00,
2013-02-22 14:43:00,31.5,24.8,30.10,SE,135,7.0,10.0,76,0.00,,,0.03,meteohub,2013-02-22 20:43:00,
2013-02-22 14:48:00,31.6,25.0,30.10,SE,135,5.0,11.0,76,0.00,,,0.03,meteohub,2013-02-22 20:48:00,
2013-02-22 14:53:00,31.8,25.2,30.10,SE,135,7.0,11.0,76,0.00,,,0.03,meteohub,2013-02-22 20:53:00,
2013-02-22 14:58:00,31.8,25.2,30.10,SE,135,10.0,11.0,76,0.00,,,0.03,meteohub,2013-02-22 20:58:00,
2013-02-22 15:03:00,32.0,25.0,30.10,SE,135,11.0,11.0,75,0.00,,,0.03,meteohub,2013-02-22 21:03:00,
2013-02-22 15:08:00,32.2,24.8,30.10,SE,135,14.0,14.0,74,0.00,,,0.03,meteohub,2013-02-22 21:08:00,
2013-02-22 15:13:00,31.8,24.4,30.10,SE,135,9.0,14.0,74,0.00,,,0.03,meteohub,2013-02-22 21:13:00,
2013-02-22 15:18:00,31.8,24.8,30.10,SE,135,11.0,14.0,75,0.00,,,0.03,meteohub,2013-02-22 21:18:00,
2013-02-22 15:23:00,32.0,25.0,30.10,SE,135,10.0,14.0,75,0.00,,,0.03,meteohub,2013-02-22 21:23:00,
2013-02-22 15:28:00,32.0,25.0,30.09,SE,135,9.0,12.0,75,0.00,,,0.03,meteohub,2013-02-22 21:28:00,
2013-02-22 15:33:00,32.0,25.0,30.09,SE,135,10.0,12.0,75,0.00,,,0.03,meteohub,2013-02-22 21:33:00,
2013-02-22 15:38:00,31.8,24.4,30.09,SE,135,13.0,13.0,74,0.00,,,0.03,meteohub,2013-02-22 21:38:00,
2013-02-22 15:43:00,31.8,24.4,30.09,SE,135,11.0,11.0,74,0.00,,,0.03,meteohub,2013-02-22 21:43:00,
2013-02-22 15:48:00,31.8,24.4,30.09,SE,135,12.0,13.0,74,0.00,,,0.03,meteohub,2013-02-22 21:48:00,
2013-02-22 15:53:00,31.8,24.4,30.09,SE,135,8.0,13.0,74,0.00,,,0.03,meteohub,2013-02-22 21:53:00,
2013-02-22 15:58:00,31.6,24.3,30.09,SE,135,5.0,12.0,74,0.00,,,0.03,meteohub,2013-02-22 21:58:00,
2013-02-22 16:03:00,31.8,24.4,30.09,SE,135,10.0,12.0,74,0.00,,,0.03,meteohub,2013-02-22 22:03:00,
2013-02-22 16:08:00,31.8,24.4,30.11,SE,135,6.0,10.0,74,0.00,,,0.03,meteohub,2013-02-22 22:08:00,
2013-02-22 16:13:00,31.8,24.8,30.11,SE,135,12.0,12.0,75,0.00,,,0.03,meteohub,2013-02-22 22:13:00,
2013-02-22 16:18:00,31.6,24.3,30.11,SE,135,8.0,10.0,74,0.00,,,0.03,meteohub,2013-02-22 22:18:00,
2013-02-22 16:23:00,31.6,24.3,30.11,SE,135,10.0,12.0,74,0.00,,,0.03,meteohub,2013-02-22 22:23:00,
2013-02-22 16:28:00,31.6,24.3,30.10,SE,135,9.0,12.0,74,0.00,,,0.03,meteohub,2013-02-22 22:28:00,
2013-02-22 16:33:00,31.8,24.4,30.10,SE,135,6.0,13.0,74,0.00,,,0.03,meteohub,2013-02-22 22:33:00,
2013-02-22 16:38:00,31.5,24.1,30.10,SE,135,8.0,13.0,74,0.00,,,0.03,meteohub,2013-02-22 22:38:00,
2013-02-22 16:43:00,31.8,24.4,30.10,SE,135,6.0,13.0,74,0.00,,,0.03,meteohub,2013-02-22 22:43:00,
2013-02-22 16:48:00,31.5,24.1,30.09,SE,135,7.0,11.0,74,0.00,,,0.03,meteohub,2013-02-22 22:48:00,
2013-02-22 16:53:00,31.5,24.1,30.09,SE,135,6.0,8.0,74,0.00,,,0.03,meteohub,2013-02-22 22:53:00,
2013-02-22 16:58:00,31.5,24.1,30.09,SE,135,4.0,8.0,74,0.00,,,0.03,meteohub,2013-02-22 22:58:00,
2013-02-22 17:03:00,31.3,23.9,30.09,SE,135,8.0,8.0,74,0.00,,,0.03,meteohub,2013-02-22 23:03:00,
2013-02-22 17:08:00,31.3,23.9,30.08,SE,135,11.0,11.0,74,0.03,,,0.06,meteohub,2013-02-22 23:08:00,
2013-02-22 17:13:00,31.1,23.5,30.09,SE,135,13.0,13.0,73,0.03,,,0.06,meteohub,2013-02-22 23:13:00,
2013-02-22 17:18:00,31.1,23.5,30.09,SE,135,7.0,13.0,73,0.03,,,0.06,meteohub,2013-02-22 23:18:00,
2013-02-22 17:23:00,30.6,23.0,30.09,SE,135,8.0,13.0,73,0.03,,,0.06,meteohub,2013-02-22 23:23:00,
2013-02-22 17:28:00,30.4,22.8,30.07,SE,135,12.0,13.0,73,0.03,,,0.06,meteohub,2013-02-22 23:28:00,
2013-02-22 17:33:00,30.4,22.8,30.07,SE,135,8.0,8.0,73,0.03,,,0.06,meteohub,2013-02-22 23:33:00,
2013-02-22 17:38:00,30.4,23.2,30.07,SE,135,8.0,12.0,74,0.03,,,0.06,meteohub,2013-02-22 23:38:00,
2013-02-22 17:43:00,30.0,22.8,30.07,SE,135,7.0,12.0,74,0.03,,,0.06,meteohub,2013-02-22 23:43:00,
2013-02-22 17:48:00,30.0,22.8,30.05,SE,135,7.0,9.0,74,0.03,,,0.06,meteohub,2013-02-22 23:48:00,
2013-02-22 17:53:00,29.5,22.3,30.05,SE,135,6.0,8.0,74,0.03,,,0.06,meteohub,2013-02-22 23:53:00,
2013-02-22 17:58:00,29.3,22.1,30.05,SE,135,6.0,7.0,74,0.03,,,0.06,meteohub,2013-02-22 23:58:00,
2013-02-22 18:03:00,29.1,21.9,30.05,SE,135,4.0,7.0,74,0.00,,,0.06,meteohub,2013-02-23 00:03:00,
2013-02-22 18:08:00,29.3,22.3,30.05,SE,135,2.0,7.0,75,0.00,,,0.06,meteohub,2013-02-23 00:08:00,
2013-02-22 18:13:00,28.9,22.1,30.05,SE,135,3.0,6.0,75,0.00,,,0.06,meteohub,2013-02-23 00:13:00,
2013-02-22 18:18:00,28.9,22.1,30.05,SE,135,3.0,5.0,75,0.00,,,0.06,meteohub,2013-02-23 00:18:00,
2013-02-22 18:23:00,28.4,21.7,30.06,SE,135,5.0,5.0,76,0.00,,,0.06,meteohub,2013-02-23 00:23:00,
2013-02-22 18:28:00,28.2,21.6,30.06,SE,135,3.0,5.0,76,0.00,,,0.06,meteohub,2013-02-23 00:28:00,
2013-02-22 18:33:00,28.2,21.6,30.06,SE,135,4.0,5.0,76,0.00,,,0.06,meteohub,2013-02-23 00:33:00,
2013-02-22 18:38:00,27.9,21.2,30.06,SE,135,3.0,5.0,76,0.00,,,0.06,meteohub,2013-02-23 00:38:00,
2013-02-22 18:43:00,27.7,21.4,30.06,SE,135,2.0,4.0,77,0.00,,,0.06,meteohub,2013-02-23 00:43:00,
2013-02-22 18:48:00,27.5,21.2,30.07,SE,135,4.0,4.0,77,0.00,,,0.06,meteohub,2013-02-23 00:48:00,
2013-02-22 18:53:00,27.5,21.2,30.07,SE,135,2.0,4.0,77,0.00,,,0.06,meteohub,2013-02-23 00:53:00,
2013-02-22 18:58:00,27.5,21.2,30.07,SE,135,4.0,4.0,77,0.00,,,0.06,meteohub,2013-02-23 00:58:00,
2013-02-22 19:03:00,27.1,20.8,30.07,SE,135,3.0,4.0,77,0.00,,,0.06,meteohub,2013-02-23 01:03:00,
2013-02-22 19:08:00,27.0,21.0,30.07,SE,135,4.0,4.0,78,0.00,,,0.06,meteohub,2013-02-23 01:08:00,
2013-02-22 19:13:00,26.8,20.8,30.07,SE,135,0.0,4.0,78,0.00,,,0.06,meteohub,2013-02-23 01:13:00,
2013-02-22 19:18:00,26.8,20.8,30.07,SE,135,2.0,4.0,78,0.00,,,0.06,meteohub,2013-02-23 01:18:00,
2013-02-22 19:23:00,26.8,20.8,30.07,SE,135,2.0,4.0,78,0.00,,,0.06,meteohub,2013-02-23 01:23:00,
2013-02-22 19:28:00,26.4,20.5,30.08,SE,135,2.0,3.0,78,0.00,,,0.06,meteohub,2013-02-23 01:28:00,
2013-02-22 19:33:00,26.4,20.5,30.08,SE,135,0.0,3.0,78,0.00,,,0.06,meteohub,2013-02-23 01:33:00,
2013-02-22 19:38:00,26.1,20.5,30.08,SE,135,2.0,2.0,79,0.00,,,0.06,meteohub,2013-02-23 01:38:00,
2013-02-22 19:43:00,26.1,20.5,30.08,SE,135,1.0,2.0,79,0.00,,,0.06,meteohub,2013-02-23 01:43:00,
2013-02-22 19:48:00,26.1,20.5,30.09,SE,135,0.0,3.0,79,0.00,,,0.06,meteohub,2013-02-23 01:48:00,
2013-02-22 19:53:00,25.7,20.1,30.09,SE,135,3.0,3.0,79,0.00,,,0.06,meteohub,2013-02-23 01:53:00,
2013-02-22 19:58:00,25.7,20.1,30.09,SE,135,0.0,3.0,79,0.00,,,0.06,meteohub,2013-02-23 01:58:00,
2013-02-22 20:03:00,25.5,19.9,30.09,SE,135,0.0,3.0,79,0.00,,,0.06,meteohub,2013-02-23 02:03:00,
2013-02-22 20:08:00,25.5,19.9,30.08,SE,135,0.0,3.0,79,0.00,,,0.06,meteohub,2013-02-23 02:08:00,
2013-02-22 20:13:00,25.3,19.8,30.08,SE,135,0.0,0.0,79,0.00,,,0.06,meteohub,2013-02-23 02:13:00,
2013-02-22 20:18:00,25.3,19.8,30.08,SE,135,0.0,0.0,79,0.00,,,0.06,meteohub,2013-02-23 02:18:00,
2013-02-22 20:24:00,25.3,20.1,30.08,SE,135,2.0,0.0,80,0.00,,,0.06,meteohub,2013-02-23 02:24:00,
2013-02-22 20:29:00,25.0,19.8,30.09,SE,135,0.0,1.0,80,0.00,,,0.06,meteohub,2013-02-23 02:29:00,
2013-02-22 20:34:00,25.0,19.8,30.09,SE,135,2.0,2.0,80,0.00,,,0.06,meteohub,2013-02-23 02:34:00,
2013-02-22 20:39:00,25.0,19.8,30.09,SE,135,2.0,3.0,80,0.00,,,0.06,meteohub,2013-02-23 02:39:00,
2013-02-22 20:44:00,24.8,19.6,30.09,SE,135,3.0,3.0,80,0.00,,,0.06,meteohub,2013-02-23 02:44:00,
2013-02-22 20:49:00,25.0,19.8,30.09,SE,135,2.0,3.0,80,0.00,,,0.06,meteohub,2013-02-23 02:49:00,
2013-02-22 20:54:00,24.8,19.6,30.09,SE,135,0.0,3.0,80,0.00,,,0.06,meteohub,2013-02-23 02:54:00,
2013-02-22 20:59:00,24.6,19.4,30.09,SE,135,0.0,3.0,80,0.00,,,0.06,meteohub,2013-02-23 02:59:00,
2013-02-22 21:04:00,24.6,19.4,30.09,SE,135,0.0,2.0,80,0.00,,,0.06,meteohub,2013-02-23 03:04:00,
2013-02-22 21:09:00,24.1,19.0,30.10,SE,135,0.0,0.0,81,0.00,,,0.06,meteohub,2013-02-23 03:09:00,
2013-02-22 21:14:00,23.9,18.9,30.10,SE,135,0.0,0.0,81,0.00,,,0.06,meteohub,2013-02-23 03:14:00,
2013-02-22 21:19:00,23.9,18.9,30.10,SE,135,0.0,0.0,81,0.00,,,0.06,meteohub,2013-02-23 03:19:00,
2013-02-22 21:24:00,23.9,18.9,30.10,SE,135,0.0,0.0,81,0.00,,,0.06,meteohub,2013-02-23 03:24:00,
2013-02-22 21:29:00,23.5,18.5,30.10,SE,135,0.0,0.0,81,0.00,,,0.06,meteohub,2013-02-23 03:29:00,
2013-02-22 21:34:00,23.4,18.3,30.11,SE,135,0.0,0.0,81,0.00,,,0.06,meteohub,2013-02-23 03:34:00,
2013-02-22 21:39:00,23.5,18.5,30.10,SE,135,0.0,0.0,81,0.00,,,0.06,meteohub,2013-02-23 03:39:00,
2013-02-22 21:44:00,23.2,18.1,30.11,SE,135,0.0,0.0,81,0.00,,,0.06,meteohub,2013-02-23 03:44:00,
2013-02-22 21:49:00,23.2,18.1,30.09,SE,135,0.0,0.0,81,0.00,,,0.06,meteohub,2013-02-23 03:49:00,
2013-02-22 21:54:00,23.2,18.5,30.09,SE,135,0.0,0.0,82,0.00,,,0.06,meteohub,2013-02-23 03:54:00,
2013-02-22 21:59:00,22.8,18.0,30.09,SE,135,0.0,0.0,81,0.00,,,0.06,meteohub,2013-02-23 03:59:00,
2013-02-22 22:04:00,22.8,18.0,30.09,SE,135,0.0,0.0,81,0.00,,,0.06,meteohub,2013-02-23 04:04:00,
2013-02-22 22:09:00,22.5,17.8,30.11,SE,135,0.0,0.0,82,0.00,,,0.06,meteohub,2013-02-23 04:09:00,
2013-02-22 22:14:00,22.5,17.8,30.11,SE,135,0.0,0.0,82,0.00,,,0.06,meteohub,2013-02-23 04:14:00,
2013-02-22 22:19:00,22.5,17.8,30.11,SE,135,0.0,0.0,82,0.00,,,0.06,meteohub,2013-02-23 04:19:00,
2013-02-22 22:24:00,22.1,17.4,30.11,SE,135,0.0,0.0,82,0.00,,,0.06,meteohub,2013-02-23 04:24:00,
2013-02-22 22:29:00,22.1,17.4,30.11,SE,135,0.0,0.0,82,0.00,,,0.06,meteohub,2013-02-23 04:29:00,
2013-02-22 22:34:00,21.9,17.2,30.11,SE,135,0.0,0.0,82,0.00,,,0.06,meteohub,2013-02-23 04:34:00,
2013-02-22 22:39:00,22.1,17.4,30.11,SE,135,0.0,0.0,82,0.00,,,0.06,meteohub,2013-02-23 04:39:00,
2013-02-22 22:44:00,21.7,17.1,30.11,SE,135,0.0,0.0,82,0.00,,,0.06,meteohub,2013-02-23 04:44:00,
2013-02-22 22:49:00,21.7,17.1,30.10,SE,135,0.0,0.0,82,0.00,,,0.06,meteohub,2013-02-23 04:49:00,
2013-02-22 22:54:00,21.7,17.1,30.10,SE,135,0.0,0.0,82,0.00,,,0.06,meteohub,2013-02-23 04:54:00,
2013-02-22 22:59:00,21.4,16.7,30.11,SE,135,0.0,0.0,82,0.00,,,0.06,meteohub,2013-02-23 04:59:00,
2013-02-22 23:00:00,21.4,16.7,30.11,SE,135,0.0,0.0,82,0.00,,,0.06,meteohub,2013-02-23 05:00:00,
2013-02-22 23:05:00,21.4,17.1,30.11,SE,135,0.0,0.0,83,0.00,,,0.06,meteohub,2013-02-23 05:05:00,
2013-02-22 23:10:00,21.0,16.7,30.11,SE,135,0.0,0.0,83,0.00,,,0.06,meteohub,2013-02-23 05:10:00,
2013-02-22 23:15:00,21.0,16.7,30.11,SE,135,0.0,0.0,83,0.00,,,0.06,meteohub,2013-02-23 05:15:00,
2013-02-22 23:20:00,21.0,16.7,30.11,SE,135,0.0,0.0,83,0.00,,,0.06,meteohub,2013-02-23 05:20:00,
2013-02-22 23:25:00,20.7,16.3,30.12,SE,135,0.0,0.0,83,0.00,,,0.06,meteohub,2013-02-23 05:25:00,
2013-02-22 23:30:00,20.7,16.3,30.12,SE,135,0.0,0.0,83,0.00,,,0.06,meteohub,2013-02-23 05:30:00,
2013-02-22 23:35:00,20.5,16.2,30.12,SE,135,0.0,0.0,83,0.00,,,0.06,meteohub,2013-02-23 05:35:00,
2013-02-22 23:40:00,20.5,16.2,30.12,SE,135,0.0,0.0,83,0.00,,,0.06,meteohub,2013-02-23 05:40:00,
2013-02-22 23:45:00,20.7,16.5,30.12,SE,135,0.0,0.0,84,0.00,,,0.06,meteohub,2013-02-23 05:45:00,
2013-02-22 23:50:00,20.7,16.5,30.12,SE,135,0.0,0.0,84,0.00,,,0.06,meteohub,2013-02-23 05:50:00,
2013-02-22 23:55:00,20.3,16.2,30.12,SE,135,0.0,0.0,84,0.00,,,0.06,meteohub,2013-02-23 05:55:00,